| time (UTC) | temp F | wind direction | speed MPH | gust MPH | rain 1hr in | rain 24hr in | rain mn in | humidity % | barometer mb |
| 20260505024812 | 60 | 132 | 0.0 | 0.0 | 0.00 | 0.00 | 0.00 | 67 | 1011.9 |
| 20260505024309 | 61 | 132 | 0.0 | 0.0 | 0.00 | 0.00 | 0.00 | 67 | 1011.9 |
| 20260505023806 | 61 | 132 | 0.0 | 0.0 | 0.00 | 0.00 | 0.00 | 67 | 1011.9 |
| 20260505023303 | 61 | 132 | 0.0 | 0.0 | 0.00 | 0.00 | 0.00 | 65 | 1011.9 |
| 20260505022800 | 61 | 132 | 0.0 | 0.0 | 0.00 | 0.00 | 0.00 | 65 | 1011.5 |
| 20260505022258 | 62 | 132 | 0.0 | 0.0 | 0.00 | 0.00 | 0.00 | 64 | 1011.9 |
| 20260505021754 | 62 | 132 | 0.0 | 0.0 | 0.00 | 0.00 | 0.00 | 64 | 1011.5 |
| 20260505021251 | 62 | 132 | 0.0 | 0.0 | 0.00 | 0.00 | 0.00 | 64 | 1011.9 |
| 20260505020747 | 63 | 132 | 0.0 | 0.0 | 0.00 | 0.00 | 0.00 | 63 | 1011.9 |
| 20260505020242 | 63 | 132 | 0.0 | 0.0 | 0.00 | 0.00 | 0.00 | 61 | 1011.5 |
| 20260505015740 | 63 | 132 | 0.0 | 0.0 | 0.00 | 0.00 | 0.00 | 60 | 1011.5 |
| 20260505015237 | 63 | 132 | 0.0 | 1.0 | 0.00 | 0.00 | 0.00 | 60 | 1011.5 |
| 20260505014734 | 64 | 132 | 0.0 | 1.0 | 0.00 | 0.00 | 0.00 | 60 | 1011.5 |
| 20260505014231 | 64 | 132 | 0.0 | 1.0 | 0.00 | 0.00 | 0.00 | 60 | 1011.5 |
| 20260505013727 | 64 | 132 | 0.0 | 1.0 | 0.00 | 0.00 | 0.00 | 59 | 1011.5 |
| 20260505013225 | 65 | 132 | 0.0 | 1.0 | 0.00 | 0.00 | 0.00 | 58 | 1011.2 |
| 20260505012723 | 65 | 132 | 0.0 | 0.0 | 0.00 | 0.00 | 0.00 | 57 | 1011.5 |
| 20260505012220 | 65 | 132 | 0.0 | 1.0 | 0.00 | 0.00 | 0.00 | 57 | 1011.5 |
| 20260505011715 | 66 | 132 | 0.0 | 1.0 | 0.00 | 0.00 | 0.00 | 56 | 1011.5 |
| 20260505011213 | 66 | 132 | 0.0 | 2.0 | 0.00 | 0.00 | 0.00 | 55 | 1011.5 |
| 20260505010708 | 66 | 132 | 0.0 | 2.0 | 0.00 | 0.00 | 0.00 | 55 | 1011.5 |
| 20260505010205 | 66 | 132 | 0.0 | 2.0 | 0.00 | 0.00 | 0.00 | 54 | 1011.2 |
| 20260505005701 | 67 | 132 | 0.0 | 2.0 | 0.00 | 0.00 | 0.00 | 54 | 1011.2 |
| 20260505005159 | 67 | 172 | 0.0 | 1.0 | 0.00 | 0.00 | 0.00 | 54 | 1011.5 |
| 20260505004655 | 67 | 172 | 0.0 | 2.0 | 0.00 | 0.00 | 0.00 | 53 | 1011.2 |
| 20260505004152 | 68 | 172 | 0.0 | 2.0 | 0.00 | 0.00 | 0.00 | 53 | 1011.2 |
| 20260505003649 | 68 | 173 | 0.0 | 2.0 | 0.00 | 0.00 | 0.00 | 53 | 1011.2 |
| 20260505003147 | 68 | 173 | 0.0 | 4.0 | 0.00 | 0.00 | 0.00 | 52 | 1011.2 |
| 20260505002643 | 68 | 173 | 0.0 | 4.0 | 0.00 | 0.00 | 0.00 | 52 | 1011.2 |
| 20260505002141 | 68 | 173 | 0.0 | 5.0 | 0.00 | 0.00 | 0.00 | 51 | 1011.2 |
| 20260505001638 | 69 | 174 | 0.0 | 5.0 | 0.00 | 0.00 | 0.00 | 51 | 1011.2 |
| 20260505001135 | 69 | 147 | 1.0 | 4.0 | 0.00 | 0.00 | 0.00 | 50 | 1010.9 |
| 20260505000633 | 69 | 154 | 1.0 | 4.0 | 0.00 | 0.00 | 0.00 | 50 | 1010.9 |
| 20260505000131 | 69 | 155 | 1.0 | 4.0 | 0.00 | 0.00 | 0.00 | 49 | 1010.9 |
| 20260504235626 | 70 | 161 | 1.0 | 6.0 | 0.00 | 0.00 | 0.00 | 49 | 1010.9 |
| 20260504235123 | 70 | 151 | 1.0 | 6.0 | 0.00 | 0.00 | 0.00 | 48 | 1010.9 |
| 20260504234620 | 70 | 170 | 0.0 | 3.0 | 0.00 | 0.00 | 0.00 | 47 | 1010.9 |
| 20260504234118 | 71 | 115 | 0.0 | 6.0 | 0.00 | 0.00 | 0.00 | 47 | 1010.9 |
| 20260504233613 | 71 | 115 | 0.0 | 6.0 | 0.00 | 0.00 | 0.00 | 47 | 1010.9 |
| 20260504233109 | 71 | 115 | 1.0 | 6.0 | 0.00 | 0.00 | 0.00 | 46 | 1010.9 |
| 20260504232607 | 72 | 152 | 1.0 | 8.0 | 0.00 | 0.00 | 0.00 | 46 | 1010.9 |
| 20260504232104 | 72 | 166 | 1.0 | 8.0 | 0.00 | 0.00 | 0.00 | 45 | 1010.9 |
| 20260504231600 | 73 | 221 | 1.0 | 8.0 | 0.00 | 0.00 | 0.00 | 45 | 1010.9 |
| 20260504231056 | 73 | 153 | 1.0 | 5.0 | 0.00 | 0.00 | 0.00 | 45 | 1010.9 |
| 20260504230553 | 73 | 171 | 1.0 | 6.0 | 0.00 | 0.00 | 0.00 | 44 | 1010.9 |
| 20260504230052 | 74 | 153 | 1.0 | 6.0 | 0.00 | 0.00 | 0.00 | 43 | 1010.9 |
| 20260504225549 | 74 | 335 | 1.0 | 5.0 | 0.00 | 0.00 | 0.00 | 43 | 1010.9 |
| 20260504225046 | 75 | 159 | 1.0 | 5.0 | 0.00 | 0.00 | 0.00 | 41 | 1010.9 |
| 20260504224542 | 75 | 178 | 1.0 | 8.0 | 0.00 | 0.00 | 0.00 | 39 | 1010.9 |
| 20260504224040 | 75 | 220 | 1.0 | 8.0 | 0.00 | 0.00 | 0.00 | 39 | 1010.9 |
| 20260504223536 | 75 | 249 | 1.0 | 8.0 | 0.00 | 0.00 | 0.00 | 39 | 1010.9 |
| 20260504223032 | 75 | 209 | 2.0 | 8.0 | 0.00 | 0.00 | 0.00 | 39 | 1010.5 |
| 20260504222529 | 75 | 260 | 2.0 | 8.0 | 0.00 | 0.00 | 0.00 | 38 | 1010.5 |
| 20260504222027 | 76 | 242 | 1.0 | 9.0 | 0.00 | 0.00 | 0.00 | 38 | 1010.5 |
| 20260504221524 | 76 | 171 | 0.0 | 9.0 | 0.00 | 0.00 | 0.00 | 39 | 1010.5 |
| 20260504221020 | 76 | 247 | 0.0 | 7.0 | 0.00 | 0.00 | 0.00 | 39 | 1010.5 |
| 20260504220517 | 76 | 207 | 1.0 | 7.0 | 0.00 | 0.00 | 0.00 | 39 | 1010.5 |
| 20260504220014 | 76 | 216 | 1.0 | 7.0 | 0.00 | 0.00 | 0.00 | 37 | 1010.9 |
| 20260504215510 | 76 | 202 | 1.0 | 7.0 | 0.00 | 0.00 | 0.00 | 39 | 1010.9 |
| 20260504215008 | 76 | 241 | 2.0 | 5.0 | 0.00 | 0.00 | 0.00 | 38 | 1010.9 |
| 20260504214504 | 76 | 184 | 2.0 | 5.0 | 0.00 | 0.00 | 0.00 | 37 | 1010.9 |
| 20260504214000 | 76 | 232 | 1.0 | 4.0 | 0.00 | 0.00 | 0.00 | 39 | 1010.9 |
| 20260504213456 | 76 | 306 | 1.0 | 4.0 | 0.00 | 0.00 | 0.00 | 38 | 1010.9 |
| 20260504212954 | 76 | 186 | 1.0 | 11.0 | 0.00 | 0.00 | 0.00 | 39 | 1010.9 |
| 20260504212449 | 76 | 215 | 1.0 | 11.0 | 0.00 | 0.00 | 0.00 | 38 | 1010.9 |
| 20260504211948 | 76 | 233 | 2.0 | 11.0 | 0.00 | 0.00 | 0.00 | 38 | 1010.9 |
| 20260504211443 | 76 | 220 | 2.0 | 11.0 | 0.00 | 0.00 | 0.00 | 38 | 1010.9 |
| 20260504210941 | 76 | 175 | 1.0 | 5.0 | 0.00 | 0.00 | 0.00 | 38 | 1010.9 |
| 20260504210438 | 77 | 244 | 2.0 | 8.0 | 0.00 | 0.00 | 0.00 | 38 | 1010.9 |
| 20260504205935 | 77 | 111 | 1.0 | 8.0 | 0.00 | 0.00 | 0.00 | 38 | 1010.9 |
| 20260504205432 | 77 | 225 | 2.0 | 8.0 | 0.00 | 0.00 | 0.00 | 39 | 1010.9 |
| 20260504204931 | 77 | 192 | 3.0 | 10.0 | 0.00 | 0.00 | 0.00 | 37 | 1010.9 |
| 20260504204429 | 78 | 191 | 2.0 | 10.0 | 0.00 | 0.00 | 0.00 | 36 | 1010.9 |
| 20260504203928 | 78 | 163 | 2.0 | 6.0 | 0.00 | 0.00 | 0.00 | 36 | 1011.2 |
| 20260504203425 | 78 | 75 | 2.0 | 7.0 | 0.00 | 0.00 | 0.00 | 36 | 1011.2 |
| 20260504202920 | 78 | 180 | 1.0 | 7.0 | 0.00 | 0.00 | 0.00 | 36 | 1011.2 |
| 20260504202417 | 78 | 152 | 1.0 | 8.0 | 0.00 | 0.00 | 0.00 | 38 | 1011.2 |
| 20260504201914 | 78 | 167 | 1.0 | 9.0 | 0.00 | 0.00 | 0.00 | 38 | 1011.2 |
| 20260504201412 | 77 | 167 | 2.0 | 9.0 | 0.00 | 0.00 | 0.00 | 37 | 1011.2 |
| 20260504200909 | 77 | 208 | 2.0 | 9.0 | 0.00 | 0.00 | 0.00 | 37 | 1011.2 |
| 20260504200405 | 77 | 172 | 1.0 | 9.0 | 0.00 | 0.00 | 0.00 | 38 | 1011.5 |
| 20260504195902 | 77 | 150 | 2.0 | 9.0 | 0.00 | 0.00 | 0.00 | 39 | 1011.5 |
| 20260504195357 | 77 | 277 | 2.0 | 7.0 | 0.00 | 0.00 | 0.00 | 37 | 1011.5 |
| 20260504194854 | 77 | 156 | 2.0 | 7.0 | 0.00 | 0.00 | 0.00 | 38 | 1011.5 |
| 20260504194350 | 77 | 160 | 2.0 | 7.0 | 0.00 | 0.00 | 0.00 | 37 | 1011.5 |
| 20260504193846 | 78 | 176 | 1.0 | 7.0 | 0.00 | 0.00 | 0.00 | 38 | 1011.9 |
| 20260504193344 | 77 | 284 | 1.0 | 5.0 | 0.00 | 0.00 | 0.00 | 37 | 1011.9 |
| 20260504192843 | 77 | 180 | 1.0 | 5.0 | 0.00 | 0.00 | 0.00 | 38 | 1011.9 |
| 20260504192340 | 77 | 180 | 1.0 | 5.0 | 0.00 | 0.00 | 0.00 | 38 | 1011.9 |
| 20260504191838 | 76 | 185 | 1.0 | 5.0 | 0.00 | 0.00 | 0.00 | 38 | 1011.9 |
| 20260504191336 | 76 | 178 | 1.0 | 4.0 | 0.00 | 0.00 | 0.00 | 39 | 1012.2 |
| 20260504190831 | 76 | 74 | 1.0 | 6.0 | 0.00 | 0.00 | 0.00 | 39 | 1012.2 |
| 20260504190327 | 75 | 143 | 1.0 | 6.0 | 0.00 | 0.00 | 0.00 | 39 | 1012.2 |
| 20260504185824 | 76 | 211 | 1.0 | 6.0 | 0.00 | 0.00 | 0.00 | 38 | 1012.6 |
| 20260504185321 | 76 | 168 | 2.0 | 11.0 | 0.00 | 0.00 | 0.00 | 40 | 1012.6 |
| 20260504184817 | 76 | 248 | 2.0 | 11.0 | 0.00 | 0.00 | 0.00 | 38 | 1012.6 |
| 20260504184313 | 76 | 234 | 2.0 | 11.0 | 0.00 | 0.00 | 0.00 | 39 | 1012.6 |
| 20260504183809 | 76 | 256 | 2.0 | 11.0 | 0.00 | 0.00 | 0.00 | 38 | 1012.9 |
| 20260504183306 | 76 | 188 | 1.0 | 4.0 | 0.00 | 0.00 | 0.00 | 38 | 1012.9 |
| 20260504182804 | 76 | 99 | 1.0 | 4.0 | 0.00 | 0.00 | 0.00 | 37 | 1012.9 |
| 20260504182301 | 76 | 188 | 2.0 | 9.0 | 0.00 | 0.00 | 0.00 | 36 | 1012.9 |
| 20260504181758 | 76 | 351 | 2.0 | 9.0 | 0.00 | 0.00 | 0.00 | 38 | 1013.2 |
| 20260504181255 | 76 | 226 | 1.0 | 3.0 | 0.00 | 0.00 | 0.00 | 37 | 1012.9 |
| 20260504180755 | 75 | 162 | 1.0 | 2.0 | 0.00 | 0.00 | 0.00 | 39 | 1013.2 |
| 20260504180253 | 75 | 182 | 1.0 | 7.0 | 0.00 | 0.00 | 0.00 | 38 | 1013.2 |
| 20260504175750 | 75 | 204 | 1.0 | 7.0 | 0.00 | 0.00 | 0.00 | 37 | 1013.2 |
| 20260504175247 | 75 | 202 | 1.0 | 4.0 | 0.00 | 0.00 | 0.00 | 38 | 1013.2 |
| 20260504174745 | 75 | 235 | 1.0 | 6.0 | 0.00 | 0.00 | 0.00 | 37 | 1013.2 |
| 20260504174243 | 75 | 145 | 1.0 | 6.0 | 0.00 | 0.00 | 0.00 | 38 | 1013.2 |
| 20260504173739 | 75 | 342 | 1.0 | 5.0 | 0.00 | 0.00 | 0.00 | 38 | 1013.6 |
| 20260504173236 | 74 | 107 | 1.0 | 7.0 | 0.00 | 0.00 | 0.00 | 38 | 1013.6 |
| 20260504172733 | 74 | 186 | 2.0 | 7.0 | 0.00 | 0.00 | 0.00 | 38 | 1013.6 |
| 20260504172229 | 74 | 196 | 1.0 | 7.0 | 0.00 | 0.00 | 0.00 | 37 | 1013.6 |
| 20260504171725 | 74 | 203 | 1.0 | 7.0 | 0.00 | 0.00 | 0.00 | 38 | 1013.9 |
| 20260504171222 | 74 | 200 | 1.0 | 3.0 | 0.00 | 0.00 | 0.00 | 40 | 1013.9 |
| 20260504170719 | 73 | 156 | 1.0 | 7.0 | 0.00 | 0.00 | 0.00 | 38 | 1013.9 |
| 20260504170217 | 73 | 266 | 1.0 | 7.0 | 0.00 | 0.00 | 0.00 | 40 | 1013.9 |
| 20260504160135 | 71 | 294 | 0.0 | 3.0 | 0.00 | 0.00 | 0.00 | 41 | 1014.6 |
| 20260504151102 | 69 | 213 | 1.0 | 4.0 | 0.00 | 0.00 | 0.00 | 40 | 1015.3 |
| 20260504150600 | 68 | 217 | 1.0 | 3.0 | 0.00 | 0.00 | 0.00 | 42 | 1015.3 |
| 20260504141026 | 62 | 169 | 0.0 | 2.0 | 0.00 | 0.00 | 0.00 | 53 | 1015.3 |
| 20260504140522 | 62 | 197 | 0.0 | 2.0 | 0.00 | 0.00 | 0.00 | 54 | 1015.6 |
| 20260504130447 | 56 | 189 | 1.0 | 2.0 | 0.00 | 0.00 | 0.00 | 63 | 1015.9 |
| 20260504110334 | 46 | 295 | 0.0 | 0.0 | 0.00 | 0.00 | 0.00 | 78 | 1016.3 |
| 20260504100251 | 47 | 295 | 0.0 | 0.0 | 0.00 | 0.00 | 0.00 | 78 | 1016.3 |
| 20260504081645 | 45 | 291 | 0.0 | 0.0 | 0.00 | 0.00 | 0.00 | 79 | 1017.0 |
| 20260504081141 | 45 | 290 | 0.0 | 0.0 | 0.00 | 0.00 | 0.00 | 79 | 1017.0 |
| 20260504080637 | 45 | 291 | 0.0 | 0.0 | 0.00 | 0.00 | 0.00 | 78 | 1017.0 |
| 20260504080134 | 45 | 291 | 0.0 | 0.0 | 0.00 | 0.00 | 0.00 | 78 | 1017.0 |
| 20260504050450 | 43 | 274 | 0.0 | 0.0 | 0.00 | 0.00 | 0.00 | 78 | 1017.0 |
| 20260504045947 | 43 | 271 | 0.0 | 0.0 | 0.00 | 0.00 | 0.00 | 77 | 1017.0 |
| 20260504045443 | 43 | 271 | 0.0 | 0.0 | 0.00 | 0.00 | 0.00 | 77 | 1017.0 |
| 20260504044939 | 43 | 271 | 0.0 | 0.0 | 0.00 | 0.00 | 0.00 | 77 | 1017.0 |
| 20260504044437 | 43 | 273 | 0.0 | 0.0 | 0.00 | 0.00 | 0.00 | 77 | 1017.0 |
| 20260504043934 | 43 | 271 | 0.0 | 0.0 | 0.00 | 0.00 | 0.00 | 77 | 1017.0 |
| 20260504043431 | 43 | 271 | 0.0 | 0.0 | 0.00 | 0.00 | 0.00 | 77 | 1017.0 |
| 20260504042928 | 43 | 273 | 0.0 | 0.0 | 0.00 | 0.00 | 0.00 | 77 | 1017.0 |
| 20260504042425 | 43 | 272 | 0.0 | 0.0 | 0.00 | 0.00 | 0.00 | 77 | 1017.0 |
| 20260504041921 | 43 | 271 | 0.0 | 0.0 | 0.00 | 0.00 | 0.00 | 76 | 1017.0 |
| 20260504041418 | 44 | 273 | 0.0 | 0.0 | 0.00 | 0.00 | 0.00 | 76 | 1017.0 |
| 20260504040914 | 44 | 275 | 0.0 | 0.0 | 0.00 | 0.00 | 0.00 | 76 | 1017.0 |
| 20260504040412 | 44 | 275 | 0.0 | 0.0 | 0.00 | 0.00 | 0.00 | 76 | 1017.0 |
| 20260504035907 | 44 | 279 | 0.0 | 0.0 | 0.00 | 0.00 | 0.00 | 75 | 1017.0 |
| 20260504035405 | 44 | 281 | 0.0 | 0.0 | 0.00 | 0.00 | 0.00 | 75 | 1017.0 |
| 20260504034901 | 44 | 284 | 0.0 | 0.0 | 0.00 | 0.00 | 0.00 | 74 | 1017.0 |
| 20260504034359 | 44 | 286 | 0.0 | 0.0 | 0.00 | 0.00 | 0.00 | 74 | 1017.0 |
| 20260504033856 | 45 | 288 | 0.0 | 0.0 | 0.00 | 0.00 | 0.00 | 74 | 1016.6 |
| 20260504033354 | 45 | 288 | 0.0 | 0.0 | 0.00 | 0.00 | 0.00 | 74 | 1016.6 |
| 20260504032850 | 45 | 290 | 0.0 | 0.0 | 0.00 | 0.00 | 0.00 | 74 | 1016.6 |
| 20260504032347 | 45 | 291 | 0.0 | 0.0 | 0.00 | 0.00 | 0.00 | 73 | 1016.3 |
| 20260504031844 | 45 | 292 | 0.0 | 0.0 | 0.00 | 0.00 | 0.00 | 73 | 1016.3 |
| 20260504031341 | 45 | 291 | 0.0 | 0.0 | 0.00 | 0.00 | 0.00 | 73 | 1016.3 |
| 20260504030837 | 46 | 292 | 0.0 | 0.0 | 0.00 | 0.00 | 0.00 | 73 | 1016.3 |
| 20260504030335 | 46 | 291 | 0.0 | 0.0 | 0.00 | 0.00 | 0.00 | 72 | 1016.3 |
| 20260504025831 | 46 | 291 | 0.0 | 0.0 | 0.00 | 0.00 | 0.00 | 72 | 1016.3 |
| 20260504025328 | 46 | 290 | 0.0 | 0.0 | 0.00 | 0.00 | 0.00 | 71 | 1016.3 |